User: anonymous   Login
Location: Caltech
(34.1382°N, 118.1253°W)
Time: 09:36:13
(UTC-07:00)
Language:

Iridium 65 - Orbit

View from above orbital plane
View from above orbital plane
View from above satellite
View from above satellite

Ground track
Ground track

The orbit data is extracted from the following two-line orbital elements,

1 25288U 98021D   16205.48353683  .00000014  00000-0 -22050-5 0  9999
2 25288  86.3959   1.2696 0002050  83.7408 276.4021 14.34212370957907
Epoch (UTC): 23 July 2016 11:36:17
Eccentricity: 0.0002050
inclination: 86.3959°
perigee height: 776 km
apogee height: 779 km
right ascension of ascending node: 1.2696°
argument of perigee: 83.7408°
revolutions per day: 14.34212370
mean anomaly at epoch: 276.4021°
orbit number at epoch: 95790

The dashed part of the orbit path shows where the satellite is in the earth's shadow,  

DLR